Temperature
20 20 20 20 20 20 20 20 20 20 20 19 19 19 19 19 19 19 19 19 19 19 18 18 18 18 18 18 18 18 18 18 18 18 18 17 17 17 17 17 17 17 17
21 21 20 20 20 20 20 20 20 19 19 19 19 19 19 19 19 19 19 19 19 19 18 18 18 18 18 18 18 18 18 18 18 17 17 17 17 17 17 17 17 17 17
21 21 21 20 20 20 20 20 19 19 19 19 19 19 19 19 19 19 19 19 19 18 18 18 18 18 18 18 18 18 17 17 17 17 17 17 17 17 17 17 17 17 17
22 21 21 20 20 20 20 19 19 19 19 19 19 19 19 19 19 19 19 19 19 18 18 18 18 18 18 18 17 17 17 17 17 17 17 17 17 17 17 17 17 17 17
22 21 21 21 20 20 20 19 19 19 19 19 19 19 18 18 18 18 18 19 18 18 18 18 18 18 18 17 17 17 17 17 17 17 17 17 17 17 17 17 17 17 17
22 21 21 21 20 20 20 19 19 19 19 19 18 18 18 18 18 18 18 18 18 18 18 18 18 18 17 17 17 17 17 17 17 17 17 17 17 17 17 17 17 17 17
22 21 21 21 20 20 20 19 19 19 19 19 18 18 18 18 18 18 18 18 18 18 18 18 18 18 17 17 17 17 17 17 17 17 17 17 17 17 17 17 17 17 17
22 21 21 21 20 20 20 20 19 19 19 19 18 18 18 18 18 18 18 18 18 18 18 18 18 18 17 17 17 17 17 17 17 17 17 17 17 17 17 17 17 17 17
22 21 21 21 20 20 20 20 19 19 19 18 18 18 18 18 18 18 18 18 18 18 18 18 18 18 17 17 17 17 17 17 17 17 18 17 17 17 17 17 17 17 17
21 21 21 20 20 20 19 19 19 19 19 18 18 18 18 18 18 18 18 18 18 18 18 18 18 18 18 17 17 17 17 17 17 18 18 17 17 17 17 17 17 17 17
21 21 21 20 20 20 19 19 19 19 18 18 18 18 18 18 18 18 18 18 18 18 18 18 18 18 18 17 17 17 17 17 18 18 18 17 17 17 17 17 17 17 17
21 21 21 20 20 20 19 19 19 19 18 18 18 18 18 18 18 18 18 18 18 18 18 18 18 18 17 17 17 17 17 18 18 18 18 17 17 17 17 17 17 17 17
21 21 20 20 20 20 19 19 19 19 18 18 18 18 18 18 18 18 18 18 18 18 18 17 17 17 17 17 17 17 17 17 17 17 17 17 17 17 17 17 17 17 17
21 20 20 20 20 19 19 19 19 19 18 18 18 18 18 18 18 17 17 17 18 17 17 17 17 17 17 17 17 17 17 17 17 17 17 17 17 17 17 17 17 17 17
20 20 20 20 20 19 19 19 19 19 19 18 18 18 18 18 18 17 17 17 17 17 17 17 17 17 17 17 17 17 17 17 17 17 17 17 17 17 17 17 17 17 17
20 20 20 20 19 19 19 19 19 19 18 18 18 18 18 17 18 17 17 17 17 17 17 17 17 17 17 17 17 17 17 17 17 17 17 17 17 17 17 17 17 17 16
20 19 19 19 19 19 19 19 18 18 18 18 18 18 18 17 17 17 17 17 17 17 17 17 17 17 17 17 17 17 17 17 17 17 17 17 17 17 16 16 16 16 16
20 19 19 18 18 18 18 18 18 18 18 18 18 18 17 17 18 17 17 17 17 17 17 17 17 17 17 17 17 17 17 17 17 17 17 17 17 17 16 16 16 16 16
20 19 19 19 18 18 18 18 18 18 18 18 18 18 18 17 17 17 17 17 17 17 17 17 17 17 17 17 17 17 17 17 17 17 17 16 16 16 16 16 16 16 16
20 19 19 18 18 18 18 18 18 18 18 18 18 18 18 18 17 17 17 17 17 17 17 17 17 17 17 17 17 17 17 17 17 16 16 16 16 16 16 16 16 16 16
19 19 18 18 18 18 18 18 18 17 17 17 17 17 18 18 17 17 17 17 17 17 17 17 17 17 17 17 17 17 17 17 17 16 16 16 16 16 16 16 16 16 16
19 19 19 18 18 18 18 18 18 18 17 17 17 17 17 17 17 17 17 17 17 17 17 17 17 17 17 17 17 17 17 16 17 17 16 16 16 16 16 16 16 16 16
19 19 19 18 18 18 18 18 17 17 17 17 17 17 17 17 17 17 17 17 17 17 17 17 17 17 17 17 17 17 17 17 17 17 17 16 16 16 16 16 16 16 16
19 19 18 18 18 18 18 18 17 17 17 18 18 17 17 17 17 17 17 17 17 17 17 17 16 16 16 17 17 17 17 17 17 17 17 16 16 16 16 16 16 16 16
19 19 18 18 18 18 18 18 18 18 18 18 17 17 17 17 17 17 17 17 17 17 17 16 16 16 16 17 17 17 17 17 17 17 17 17 16 16 16 16 16 16 16
19 18 18 18 18 18 18 18 18 18 17 17 17 17 17 17 17 17 17 17 17 17 16 16 16 16 16 16 17 17 17 17 17 17 17 17 17 17 17 16 16 16 16
Wind_Speed
11 15 21 21 21 21 20 20 19 19 19 19 19 19 20 20 19 19 18 18 17 17 17 17 18 18 18 19 19 20 20 20 20 20 20 20 20 20 20 20 19 18 20
15 19 22 22 21 21 21 20 19 19 19 19 18 18 19 18 18 18 18 17 17 17 17 17 17 17 18 18 19 19 19 19 20 19 19 18 18 19 19 19 18 17 19
19 19 22 23 22 21 21 20 19 19 19 18 18 18 18 18 17 17 17 17 17 17 16 16 16 16 16 17 17 18 18 18 19 19 18 16 17 18 19 19 19 19 18
19 19 21 23 23 22 21 20 19 19 18 18 17 17 17 17 17 17 17 16 16 16 16 16 15 15 15 15 16 16 16 17 17 17 14 14 15 18 18 18 18 18 18
17 19 22 25 23 22 21 20 20 19 18 18 17 17 17 17 17 16 16 16 16 15 15 15 14 14 13 13 13 13 13 13 15 14 14 14 15 17 17 17 17 17 17
16 18 23 25 24 23 22 21 20 19 18 17 17 17 16 16 16 16 16 15 15 14 14 13 12 12 11 11 11 10 10 12 14 14 14 14 14 16 17 16 16 16 16
16 16 22 25 24 23 22 21 20 19 18 18 17 17 16 16 16 16 15 15 14 14 13 12 11 10 9 9 9 9 10 12 13 13 13 13 14 16 16 15 15 15 15
19 15 20 24 24 23 22 21 20 19 19 18 17 16 16 16 16 15 15 14 14 13 12 11 10 9 8 8 8 8 10 11 13 12 12 12 15 15 15 15 15 15 15
17 15 15 20 22 23 22 22 21 20 19 18 17 17 16 16 15 15 14 14 13 12 11 9 8 7 6 6 7 8 10 12 13 12 12 12 14 15 14 14 14 14 14
14 13 11 15 17 18 19 21 21 20 19 18 17 17 16 16 15 14 13 13 12 11 9 8 7 6 5 5 6 8 11 13 12 11 11 12 14 14 14 13 13 13 13
14 12 12 11 13 15 16 19 19 19 18 17 16 17 15 13 13 13 12 12 11 10 8 7 5 4 3 2 4 8 10 10 12 11 11 13 14 14 14 13 13 13 13
17 14 13 13 11 13 15 15 14 15 15 14 13 14 12 12 11 11 12 11 10 9 7 5 4 2 1 1 3 7 8 10 11 11 12 15 15 14 14 13 13 13 12
18 16 14 14 12 10 8 11 10 10 12 12 12 13 12 10 9 9 9 8 7 7 4 3 2 1 1 2 4 6 9 10 10 10 13 16 15 14 13 13 13 13 12
18 16 15 14 12 10 11 9 9 8 9 9 12 13 10 6 6 7 6 6 5 4 3 3 2 1 1 2 5 7 9 9 10 10 13 16 15 14 13 13 13 12 12
17 17 16 15 13 11 10 8 9 8 9 10 11 13 12 7 5 5 5 6 5 5 4 3 3 2 1 3 6 9 8 10 11 11 12 15 15 14 13 13 12 12 11
17 17 15 15 13 11 10 7 6 8 10 10 11 12 14 11 8 6 4 4 5 5 5 5 4 3 2 3 5 8 9 10 11 11 11 13 14 14 13 13 12 11 11
17 17 15 15 13 12 10 8 7 8 9 8 9 12 13 13 10 7 4 3 4 5 5 4 3 3 2 3 4 5 7 9 10 10 11 11 12 13 13 12 12 12 11
16 16 16 15 13 12 9 8 7 8 8 8 10 11 13 13 12 8 4 3 5 5 4 3 2 2 2 3 3 3 4 6 8 10 10 11 11 10 11 12 12 12 11
16 16 16 14 14 12 10 7 6 7 7 8 10 10 12 13 12 9 5 4 6 4 3 3 3 3 3 3 3 3 3 4 5 8 7 10 11 11 11 12 12 12 12
14 14 15 14 14 12 9 7 6 5 4 6 7 10 12 12 12 10 5 5 6 4 3 3 3 2 3 3 2 2 1 2 3 4 6 8 10 11 12 11 11 11 12
12 13 14 14 13 12 9 8 8 6 6 5 5 10 12 11 11 9 5 4 4 4 4 4 3 3 2 2 3 3 3 2 1 2 3 4 6 10 12 11 11 10 10
13 13 13 13 13 12 10 8 6 6 5 5 4 7 11 11 11 9 6 5 5 5 5 4 3 3 1 2 4 3 2 4 3 1 1 4 4 6 8 11 12 11 11
13 14 14 13 13 11 10 8 7 5 4 4 4 5 6 10 10 9 8 6 5 5 4 4 4 4 2 0 2 4 4 3 2 3 1 2 3 4 4 8 11 12 12
12 12 11 12 12 11 11 11 12 8 7 6 6 5 5 8 9 10 9 7 5 4 5 4 4 3 4 2 1 0 2 4 3 1 3 2 2 4 5 5 8 11 13
11 12 11 11 11 10 11 12 12 8 6 5 6 7 6 5 7 9 9 7 5 4 5 5 4 4 3 3 2 1 1 2 2 3 2 2 2 3 4 4 6 9 12
10 11 11 12 11 11 11 12 12 11 9 9 8 8 6 4 4 6 8 7 6 5 5 5 5 5 4 4 3 2 3 2 2 3 3 3 3 4 3 3 4 7 11
Wind_Direction
148 153 149 143 138 132 127 123 119 114 110 109 108 107 106 107 106 106 107 107 107 107 106 106 106 105 106 107 109 110 112 112 112 112 112 112 111 110 109 108 106 106 107
147 152 149 144 140 135 131 128 124 120 116 114 113 112 110 110 110 109 109 109 109 108 108 108 108 107 108 109 111 112 113 113 112 111 111 111 111 111 110 110 109 110 108
142 148 148 146 142 138 135 132 129 125 122 120 118 117 115 115 115 114 113 112 111 111 111 110 110 110 110 111 112 114 114 113 111 108 106 103 108 111 112 113 112 111 110
142 146 148 146 143 140 138 136 134 130 127 125 124 122 120 119 119 118 116 115 114 114 114 113 113 113 112 113 114 115 117 116 114 110 106 107 110 113 114 114 114 114 113
142 145 149 147 144 142 141 139 137 135 132 131 129 127 125 123 121 120 119 118 118 117 116 115 116 116 115 114 114 115 117 119 120 113 109 108 112 117 117 117 116 116 115
142 146 150 147 146 145 144 142 141 139 137 135 133 132 130 127 125 124 122 121 120 119 119 118 118 117 117 116 113 112 115 118 118 117 114 114 118 122 121 120 120 119 118
143 147 150 149 148 148 147 146 144 142 140 138 137 135 132 130 129 128 125 124 123 123 122 121 119 117 116 116 112 109 113 124 125 122 119 120 125 126 125 123 122 123 122
146 147 151 151 151 150 150 148 147 145 144 142 140 138 135 134 132 132 130 129 128 127 127 125 122 117 112 109 106 106 109 122 133 128 125 126 131 130 128 128 127 127 126
146 147 149 152 153 153 152 151 150 148 148 147 144 142 141 140 137 136 134 134 133 133 133 132 127 120 113 109 106 110 119 129 130 133 134 134 136 134 133 133 133 133 132
146 148 147 149 150 151 153 154 153 152 151 150 149 147 146 145 143 141 140 140 141 141 142 141 137 130 121 113 109 112 120 129 134 137 137 145 143 141 139 139 137 137 137
151 152 150 147 147 149 152 157 156 155 155 154 154 153 149 146 146 147 150 150 149 150 151 151 151 147 134 117 115 115 120 132 141 145 150 153 150 148 146 145 142 141 141
159 159 157 154 151 153 157 153 156 156 156 154 156 153 151 153 156 158 161 158 158 157 157 161 171 169 148 103 112 120 125 136 144 152 160 160 157 155 153 151 149 148 146
163 163 162 159 156 157 148 150 155 154 154 157 160 158 158 162 167 162 162 162 161 162 162 179 195 204 177 145 132 133 138 142 151 161 166 166 163 160 159 158 156 155 154
164 164 163 163 161 157 150 158 161 159 162 167 173 171 164 160 161 162 165 170 171 170 177 184 198 246 213 167 156 149 147 153 158 161 169 170 166 164 164 164 164 163 163
165 164 164 164 165 161 157 165 168 167 172 177 177 176 171 162 162 165 172 176 181 183 176 175 178 170 150 138 136 141 145 151 157 163 171 174 171 169 169 170 171 170 169
165 163 165 163 165 162 163 165 166 171 173 172 173 174 171 167 164 160 162 165 171 175 168 161 157 135 124 116 116 132 142 152 163 169 172 178 179 177 177 176 177 177 176
165 162 169 168 164 162 159 165 168 174 172 168 168 167 164 162 159 153 153 155 164 159 147 128 117 102 106 109 114 132 146 156 165 172 176 178 184 187 186 185 186 185 185
161 162 166 170 163 163 162 165 168 170 169 167 163 160 160 159 156 149 148 153 151 136 126 114 104 92 91 112 126 140 147 158 168 175 179 183 185 190 194 194 193 192 193
161 162 164 162 164 166 160 160 158 161 163 163 159 156 158 158 156 149 145 146 140 123 115 127 108 114 118 125 143 138 147 159 169 176 180 189 193 197 199 202 200 199 201
157 159 161 160 162 161 153 149 148 147 157 158 158 158 158 157 153 148 145 143 133 120 116 116 116 103 127 142 122 110 126 169 167 174 188 191 196 203 206 207 205 209 211
155 159 161 161 163 159 157 158 157 160 163 162 162 159 158 156 153 149 145 141 137 138 149 139 119 105 96 112 85 46 7 6 156 175 177 180 194 201 202 205 206 208 215
165 165 165 167 169 168 165 163 156 153 160 164 158 159 160 158 158 160 150 151 146 138 135 131 122 117 89 114 121 99 36 353 346 337 181 187 193 190 193 204 206 208 212
172 173 174 173 170 167 159 147 138 128 127 141 155 164 167 161 161 158 157 152 149 147 152 150 137 133 137 73 136 141 144 207 287 326 292 197 180 183 199 203 206 211 212
176 173 169 171 168 165 160 159 157 162 166 175 169 167 166 162 162 162 158 155 150 149 155 160 146 140 138 137 34 144 163 154 150 265 321 302 211 200 204 204 204 209 211
170 171 168 168 166 166 167 165 165 167 168 157 156 159 165 163 165 165 161 154 151 153 159 152 137 134 138 146 153 142 102 92 121 143 222 287 300 252 220 206 199 202 207
168 173 169 169 172 172 171 169 171 171 166 161 165 168 166 161 166 165 162 157 159 159 162 158 146 140 143 144 143 139 147 151 180 160 182 223 244 265 244 222 206 205 207
Height
1521 1523 1526 1527 1529 1530 1531 1532 1533 1535 1536 1537 1538 1539 1540 1541 1542 1543 1544 1545 1545 1546 1546 1547 1547 1548 1549 1549 1550 1550 1551 1551 1552 1553 1553 1554 1555 1555 1556 1557 1557 1558 1559
1518 1522 1525 1528 1529 1531 1532 1533 1535 1536 1537 1538 1539 1540 1541 1543 1544 1544 1545 1546 1547 1547 1548 1549 1549 1550 1551 1551 1552 1552 1553 1554 1554 1555 1556 1556 1557 1557 1558 1559 1560 1560 1561
1519 1522 1525 1528 1529 1531 1533 1534 1536 1537 1538 1539 1540 1541 1543 1544 1545 1546 1546 1547 1548 1549 1550 1551 1551 1552 1553 1553 1554 1554 1555 1556 1557 1557 1558 1558 1559 1560 1560 1561 1562 1562 1563
1519 1522 1526 1528 1530 1532 1533 1535 1536 1538 1539 1540 1542 1543 1544 1545 1546 1547 1548 1549 1550 1551 1552 1552 1553 1554 1555 1556 1556 1557 1557 1558 1559 1560 1560 1561 1561 1562 1562 1563 1564 1564 1565
1520 1523 1526 1528 1530 1532 1534 1536 1537 1539 1540 1542 1543 1544 1545 1546 1548 1549 1550 1551 1552 1552 1553 1554 1555 1556 1557 1558 1558 1559 1560 1560 1561 1562 1562 1563 1563 1564 1565 1565 1566 1566 1567
1520 1523 1525 1528 1530 1532 1534 1536 1538 1539 1541 1542 1544 1545 1546 1548 1549 1550 1551 1552 1553 1554 1555 1556 1557 1558 1559 1560 1560 1561 1562 1562 1563 1564 1564 1565 1565 1566 1567 1567 1568 1568 1569
1519 1523 1525 1528 1530 1532 1534 1536 1538 1540 1542 1543 1545 1546 1548 1549 1550 1551 1552 1554 1555 1556 1557 1558 1559 1560 1561 1562 1562 1563 1564 1564 1565 1566 1566 1567 1567 1568 1568 1569 1570 1570 1571
1518 1522 1525 1528 1530 1532 1534 1537 1539 1541 1543 1544 1546 1547 1549 1550 1551 1553 1554 1555 1556 1557 1558 1560 1561 1562 1563 1564 1564 1565 1565 1566 1567 1568 1568 1569 1569 1570 1570 1571 1571 1572 1573
1519 1521 1524 1527 1530 1532 1535 1537 1539 1541 1543 1545 1547 1548 1550 1551 1552 1554 1555 1556 1557 1559 1560 1561 1562 1564 1565 1566 1566 1566 1567 1568 1568 1569 1569 1570 1571 1571 1572 1573 1573 1574 1575
1519 1521 1524 1526 1529 1532 1535 1537 1539 1541 1543 1546 1547 1549 1551 1552 1554 1555 1556 1558 1559 1560 1561 1563 1564 1565 1566 1567 1567 1568 1568 1569 1569 1570 1571 1571 1572 1573 1574 1574 1575 1575 1576
1518 1521 1523 1526 1529 1532 1535 1537 1540 1542 1544 1546 1548 1550 1552 1553 1555 1556 1558 1559 1560 1561 1563 1564 1565 1566 1567 1568 1568 1569 1569 1570 1571 1571 1572 1572 1573 1574 1575 1576 1576 1577 1577
1516 1519 1522 1525 1528 1531 1534 1537 1539 1542 1544 1546 1548 1550 1552 1554 1556 1557 1559 1560 1562 1563 1564 1565 1566 1567 1568 1569 1569 1570 1570 1571 1571 1572 1572 1573 1574 1575 1576 1577 1577 1578 1579
1514 1517 1521 1524 1527 1530 1533 1536 1539 1541 1544 1546 1548 1551 1552 1554 1556 1558 1560 1561 1562 1564 1565 1566 1567 1568 1569 1570 1570 1571 1571 1571 1572 1573 1573 1574 1575 1576 1577 1577 1578 1579 1580
1511 1514 1519 1522 1525 1529 1532 1535 1538 1541 1543 1546 1548 1551 1553 1554 1556 1558 1560 1562 1563 1564 1566 1567 1568 1568 1569 1570 1571 1571 1572 1572 1573 1574 1574 1575 1575 1576 1577 1578 1579 1580 1581
1507 1512 1516 1521 1524 1527 1530 1534 1538 1540 1543 1546 1548 1550 1553 1555 1556 1559 1560 1562 1563 1565 1566 1567 1568 1569 1570 1570 1571 1571 1572 1573 1574 1574 1575 1575 1576 1577 1578 1578 1579 1580 1581
1505 1509 1514 1519 1523 1526 1529 1533 1536 1539 1542 1545 1547 1550 1552 1555 1557 1559 1560 1562 1563 1565 1566 1567 1568 1569 1570 1571 1571 1572 1573 1573 1574 1575 1576 1576 1576 1577 1578 1578 1579 1580 1581
1503 1507 1512 1516 1520 1525 1528 1532 1535 1538 1541 1544 1546 1549 1552 1554 1556 1558 1560 1562 1563 1565 1566 1567 1568 1569 1570 1571 1572 1573 1573 1574 1575 1575 1576 1576 1577 1577 1578 1578 1579 1580 1581
1501 1506 1511 1515 1518 1523 1527 1531 1534 1537 1540 1543 1546 1548 1551 1554 1556 1558 1560 1561 1563 1564 1566 1567 1568 1569 1570 1571 1572 1573 1574 1574 1575 1576 1576 1577 1577 1577 1578 1578 1579 1580 1581
1500 1504 1508 1512 1516 1520 1525 1529 1533 1536 1539 1542 1545 1548 1550 1553 1555 1557 1559 1561 1562 1564 1565 1566 1568 1569 1570 1571 1572 1573 1574 1574 1575 1576 1576 1577 1577 1578 1578 1578 1579 1579 1580
1499 1502 1505 1509 1514 1518 1523 1527 1531 1534 1538 1541 1544 1547 1549 1552 1554 1556 1558 1560 1561 1563 1564 1566 1567 1568 1569 1571 1572 1573 1574 1574 1575 1575 1576 1576 1577 1577 1578 1578 1579 1579 1579
1498 1501 1504 1507 1512 1516 1520 1524 1528 1532 1536 1539 1543 1546 1548 1551 1553 1555 1557 1558 1560 1562 1563 1565 1566 1567 1569 1570 1571 1572 1573 1574 1575 1575 1576 1576 1576 1577 1577 1578 1578 1579 1579
1495 1499 1502 1505 1509 1514 1518 1522 1527 1531 1535 1538 1542 1544 1547 1549 1552 1554 1555 1557 1559 1560 1562 1564 1565 1566 1568 1569 1570 1571 1573 1575 1574 1575 1575 1575 1576 1576 1577 1577 1578 1578 1578
1494 1497 1499 1503 1507 1512 1516 1521 1526 1530 1534 1537 1540 1542 1545 1548 1550 1552 1554 1556 1557 1559 1561 1562 1564 1565 1567 1568 1570 1571 1572 1572 1573 1574 1574 1575 1575 1576 1576 1576 1577 1577 1577
1492 1495 1498 1501 1505 1509 1514 1518 1522 1526 1530 1533 1537 1540 1544 1546 1549 1551 1553 1555 1557 1558 1559 1561 1562 1564 1566 1567 1568 1570 1571 1571 1572 1573 1574 1574 1574 1575 1575 1575 1575 1576 1576
1491 1494 1497 1500 1503 1507 1512 1516 1520 1525 1528 1532 1535 1539 1542 1545 1547 1549 1552 1553 1555 1557 1558 1560 1561 1563 1564 1566 1567 1568 1569 1570 1571 1572 1572 1573 1573 1574 1574 1574 1574 1574 1574
1490 1493 1495 1497 1501 1506 1510 1514 1518 1522 1526 1530 1533 1536 1539 1542 1545 1548 1550 1552 1554 1555 1557 1558 1560 1561 1563 1565 1566 1567 1568 1569 1570 1570 1571 1571 1572 1572 1573 1573 1573 1573 1573